Location: Bédeille
(43.0872°N, 1.1041°E)
Time: 01:44:31
(UTC+00:00)

Cosmos 1932 - Pass Details

Date: 03 February 2023
Orbit: 920 x 1009 km, 65.0° (Epoch: 27 March)

Event Time Altitude Azimuth Distance (km) Brightness Sun altitude
Rises 19:25:25 0° 200° (SSW) 3,632 7.7 -24.9°
Reaches altitude 10° 19:27:58 10° 197° (SSW) 2,702 7.0 -25.4°
Enters shadow 19:34:03 62° 124° (SE) 1,105 4.4 -26.5°
